TimeMST,TemperatureF,Dew PointF,Humidity,Sea Level PressureIn,VisibilityMPH,Wind Direction,Wind SpeedMPH,Gust SpeedMPH,PrecipitationIn,Events,Conditions,WindDirDegrees,DateUTC
12:53 AM,28.0,21.0,75,29.96,10.0,ESE,8.1,-,N/A,,Overcast,110,2013-02-26 07:53:00
1:53 AM,28.9,21.0,72,29.92,10.0,ESE,6.9,-,N/A,,Overcast,120,2013-02-26 08:53:00
2:53 AM,28.9,21.9,75,29.91,10.0,WNW,4.6,-,N/A,,Overcast,300,2013-02-26 09:53:00
3:51 AM,26.6,26.6,100,29.89,1.8,NW,12.7,-,0.00,Snow,Light Snow,320,2013-02-26 10:51:00
3:53 AM,27.0,26.1,96,29.91,1.2,NNW,11.5,-,0.00,Snow,Light Snow,330,2013-02-26 10:53:00
4:13 AM,26.6,26.6,100,29.89,1.0,NNW,10.4,-,0.01,Snow,Light Snow,340,2013-02-26 11:13:00
4:34 AM,26.6,26.6,100,29.89,0.8,NW,9.2,-,0.02,Snow,Light Snow,310,2013-02-26 11:34:00
4:53 AM,27.0,27.0,100,29.92,0.8,WNW,6.9,-,0.04,Snow,Light Snow,290,2013-02-26 11:53:00
4:59 AM,26.6,26.6,100,29.89,1.5,West,8.1,-,0.00,Snow,Light Snow,270,2013-02-26 11:59:00
5:11 AM,26.6,26.6,100,29.89,2.5,WSW,6.9,-,0.01,Snow,Light Snow,250,2013-02-26 12:11:00
5:19 AM,26.6,26.6,100,29.89,4.0,WSW,5.8,-,0.01,Snow,Light Snow,250,2013-02-26 12:19:00
5:49 AM,24.8,24.8,100,29.90,8.0,North,5.8,-,0.01,,Overcast,10,2013-02-26 12:49:00
5:53 AM,26.1,26.1,100,29.94,8.0,North,6.9,-,0.01,,Overcast,10,2013-02-26 12:53:00
5:57 AM,26.6,26.6,100,29.90,8.0,North,6.9,-,N/A,,Overcast,10,2013-02-26 12:57:00
6:47 AM,26.6,26.6,100,29.91,2.0,North,9.2,-,0.00,Snow,Light Snow,350,2013-02-26 13:47:00
6:53 AM,26.1,26.1,100,29.97,1.5,North,10.4,-,0.00,Snow,Light Snow,350,2013-02-26 13:53:00
7:16 AM,26.6,24.8,93,29.92,2.5,NW,11.5,-,0.00,Snow,Light Snow,320,2013-02-26 14:16:00
7:38 AM,26.6,26.6,100,29.93,2.5,NW,4.6,-,0.00,,Mostly Cloudy,320,2013-02-26 14:38:00
7:51 AM,26.6,23.0,86,29.94,5.0,NNW,8.1,-,0.00,,Mostly Cloudy,330,2013-02-26 14:51:00
7:53 AM,27.0,24.1,89,29.99,5.0,NW,9.2,-,0.00,,Mostly Cloudy,320,2013-02-26 14:53:00
8:10 AM,26.6,21.2,80,29.95,5.0,NW,11.5,-,N/A,,Haze,310,2013-02-26 15:10:00
8:39 AM,26.6,21.2,80,29.96,7.0,WNW,6.9,-,0.00,,Overcast,290,2013-02-26 15:39:00
8:53 AM,27.0,21.9,81,30.02,10.0,West,6.9,-,0.00,,Overcast,280,2013-02-26 15:53:00
9:53 AM,28.0,19.9,72,30.02,10.0,WNW,8.1,-,N/A,,Overcast,290,2013-02-26 16:53:00
10:53 AM,28.9,21.0,72,30.04,9.0,WNW,11.5,-,0.00,,Overcast,290,2013-02-26 17:53:00
11:53 AM,32.0,21.9,66,30.03,10.0,WNW,11.5,-,0.00,,Overcast,300,2013-02-26 18:53:00
12:53 PM,34.0,18.0,52,30.02,10.0,NW,8.1,-,N/A,,Overcast,310,2013-02-26 19:53:00
1:53 PM,33.8,17.6,52,30.03,10.0,NNE,5.8,18.4,N/A,,Overcast,20,2013-02-26 20:53:00
2:53 PM,36.0,18.0,48,30.03,10.0,NNE,8.1,-,N/A,,Mostly Cloudy,30,2013-02-26 21:53:00
3:53 PM,36.0,15.1,43,30.06,10.0,WNW,13.8,-,N/A,,Mostly Cloudy,300,2013-02-26 22:53:00
4:53 PM,36.0,16.0,44,30.07,10.0,NW,18.4,25.3,N/A,,Mostly Cloudy,310,2013-02-26 23:53:00
5:53 PM,34.0,17.1,50,30.12,10.0,NNW,9.2,-,N/A,,Overcast,340,2013-02-27 00:53:00
6:53 PM,30.9,17.1,57,30.16,10.0,NNE,9.2,-,N/A,,Clear,20,2013-02-27 01:53:00
7:53 PM,30.0,19.0,64,30.20,10.0,NE,10.4,-,N/A,,Mostly Cloudy,50,2013-02-27 02:53:00
8:53 PM,28.0,21.0,75,30.24,10.0,NNE,4.6,-,N/A,,Overcast,30,2013-02-27 03:53:00
9:53 PM,27.0,18.0,69,30.26,10.0,Calm,Calm,-,N/A,,Scattered Clouds,0,2013-02-27 04:53:00
10:53 PM,26.1,18.0,71,30.27,10.0,Calm,Calm,-,N/A,,Clear,0,2013-02-27 05:53:00
11:53 PM,24.1,18.0,77,30.27,10.0,Calm,Calm,-,N/A,,Clear,0,2013-02-27 06:53:00